Location: Stanford
(52.2833°N, 2.4333°W)
Time: 02:53:22
(UTC+00:00)

Okean 1-7 Rocket - Pass Details

Date: 22 January 2021
Orbit: 615 x 650 km, 82.5° (Epoch: 24 February)

Event Time Altitude Azimuth Distance (km) Brightness Sun altitude
Rises 18:18:26 0° 185° (S) 2,948 7.3 -14.9°
Reaches altitude 10° 18:20:40 10° 184° (S) 2,046 6.4 -15.2°
Maximum altitude 18:25:13 78° 99° (E) 672 3.5 -15.9°
Drops below altitude 10° 18:29:49 10° 13° (NNE) 2,068 6.0 -16.6°
Enters shadow 18:32:01 - 12° (NNE) 2,958 6.8 -16.9°
